Tropical Cyclones
[Index]
Main Index Home Page Stock Weather Photos Extreme Storms Discussion Storm News and Storm Chasing Reports Tropical Cyclones / Hurricanes / Typhoons Weather Data and Links Wild Fires / Bushfires Weather Observation Techniques Weather Picture Catalogue Tornado Pictures and Reports Stock Video Footage and DVDs for sale
Season 1969-1970 Tropical Cyclone DIANE Track Map
Season 1969-1970 Summaries: [BoM-AU] [JTWC-AU] [JTWC-SIO] [JTWC-SPAC] [JTWC-SH]
<<- Previous TC | BoM 1969-1970 Season | Next TC ->>

click for intensity scale information  Lat/long Grid: Show Hide

 Date Labels: Show Hide

Bureau of Meteorology Tropical Cyclone Data

Name: DIANE
Number: 461 / 196970_11

03 Jan 1970 00:00 UTC to 17 Jan 1970 00:00 UTC

    date/time    lat    long    hPa   cat  kts
1970-01-03 00    7.0    97.0   1009                     
1970-01-04 00    8.0    95.0   1006                     
1970-01-04 12    7.0    96.6                            
1970-01-04 18    7.6    96.4                            
1970-01-05 00    8.3    96.3   1004                     
1970-01-05 06    9.1    96.2                            
1970-01-05 12    9.8    96.1                            
1970-01-05 18   10.3    96.0                            
1970-01-06 00   10.9    95.9    996                     
1970-01-06 06   11.6    95.6                            
1970-01-06 12   12.3    95.1                            
1970-01-06 18   13.0    95.1                            
1970-01-07 00   13.8    94.9    998                     
1970-01-07 06   14.7    93.3                            
1970-01-07 12   15.5    91.4                            
1970-01-07 18   16.0    90.2                            
1970-01-08 00   16.4    89.0    998                     
1970-01-08 06   16.8    88.0                            
1970-01-08 12   17.2    87.0                            
1970-01-08 18   17.6    85.4                            
1970-01-09 00   18.0    83.9   1000                     
1970-01-09 06   18.4    82.9                            
1970-01-09 12   18.8    82.0                            
1970-01-09 18   19.1    81.0                            
1970-01-10 00   19.5    79.9   1004                     
1970-01-10 06   19.9    78.7                            
1970-01-10 12   20.3    77.5                            
1970-01-10 18   20.7    76.3                            
1970-01-11 00   21.1    75.1   1006                     
1970-01-11 06   21.3    74.5                            
1970-01-11 12   21.4    74.4                            
1970-01-11 18   21.7    74.0                            
1970-01-12 00   21.9    73.6   1006                     
1970-01-12 06   22.0    73.2                            
1970-01-12 12   22.1    72.8                            
1970-01-12 18   22.2    72.6                            
1970-01-13 00   22.4    72.4   1006                     
1970-01-13 06   22.7    71.8                            
1970-01-13 12   23.0    71.2                            
1970-01-13 18   23.2    70.7                            
1970-01-14 00   23.5    70.1   1010                     
1970-01-14 06   23.7    69.2                            
1970-01-14 12   24.0    68.3                            
1970-01-14 18   24.4    67.4                            
1970-01-15 00   24.8    66.5   1010                     
1970-01-15 06   25.1    65.7                            
1970-01-15 12   25.5    64.9                            
1970-01-15 18   26.1    64.0                            
1970-01-16 00   26.8    63.0                            
1970-01-16 06   27.1    62.6                            
1970-01-16 12   27.5    62.3                            
1970-01-16 18   28.1    61.5                            
1970-01-17 00   28.8    60.3                            
Winds are 10-min average.

Tropical cyclone tracks developed by Michael Bath using data from the Bureau of Meteorology and Google Maps.


[Australian Severe Weather index] [Copyright Notice] [Email Contacts] [Search This Site] [Privacy Policy]
Document: tropical_cyclone_diane.htm Updated: 30 May 2013